This is the latest recevied weather packets stored in our database for station/object AD7ZD. If no packets are shown the sender has not sent any weather packets the latest 10 day(s).
| Time | Temp. | Humidity | Pressure | Rain* | Wind** | Luminosity | Snow |
|---|---|---|---|---|---|---|---|
| 1777935941 | 12.22° C | 69% | 1007.3 hPa | 0 mm | - | 84 W/m² | - |
| 1777935641 | 12.22° C | 62% | 1007.2 hPa | 0 mm | - | 95 W/m² | - |
| 1777935338 | 12.78° C | 63% | 1007.3 hPa | 0 mm | - | 121 W/m² | - |
| 1777935035 | 12.78° C | 66% | 1007.1 hPa | 0 mm | - | 153 W/m² | - |
| 1777934731 | 12.78° C | 61% | 1007.3 hPa | 0 mm | - | 168 W/m² | - |
| 1777934429 | 13.33° C | 53% | 1007.3 hPa | 0 mm | - | 121 W/m² | - |
| 1777934125 | 13.89° C | 50% | 1007.5 hPa | 0 mm | - | 77 W/m² | - |
| 1777933821 | 14.44° C | 50% | 1007.5 hPa | 0 mm | - | 62 W/m² | - |
| 1777933518 | 14.44° C | 48% | 1007.3 hPa | 0 mm | - | 56 W/m² | - |
| 1777933216 | 13.89° C | 50% | 1007.2 hPa | 0 mm | - | 56 W/m² | - |
| 1777932913 | 13.89° C | 51% | 1007.2 hPa | 0 mm | - | 56 W/m² | - |
| 1777932609 | 13.33° C | 52% | 1007 hPa | 0 mm | - | 57 W/m² | - |
| 1777932306 | 13.33° C | 53% | 1007.2 hPa | 0 mm | - | 65 W/m² | - |
| 1777932003 | 13.89° C | 48% | 1007.3 hPa | 0 mm | - | 71 W/m² | - |
| 1777931699 | 14.44° C | 46% | 1007.3 hPa | 0 mm | - | 61 W/m² | - |
| 1777931396 | 15° C | 46% | 1007.2 hPa | 0 mm | - | 71 W/m² | - |
| 1777931092 | 16.67° C | 44% | 1006.9 hPa | 0 mm | - | 187 W/m² | - |
| 1777930789 | 16.67° C | 42% | 1006.9 hPa | 0 mm | - | 294 W/m² | - |
| 1777930485 | 17.22° C | 42% | 1006.8 hPa | 0 mm | - | 390 W/m² | - |
| 1777930183 | 16.67° C | 44% | 1006.8 hPa | 0 mm | - | 554 W/m² | - |
| 1777929878 | 17.22° C | 41% | 1006.9 hPa | 0 mm | - | 668 W/m² | - |
| 1777929576 | 18.89° C | 41% | 1007.1 hPa | 0 mm | - | 862 W/m² | - |
| 1777929272 | 17.22° C | 44% | 1007.1 hPa | 0 mm | - | 838 W/m² | - |
| 1777928970 | 17.78° C | 43% | 1007.1 hPa | 0 mm | - | 796 W/m² | - |
| 1777928667 | 16.67° C | 46% | 1007.1 hPa | 0 mm | - | 788 W/m² | - |
* Rain latest hour (hover to see other rain measurements)
** Current wind speed in m/s (hover to see current wind gust speed)